WetterOnline ( https://www.wetteronline.de )

Wetter aktuell Glaitenhof

Aktuelles Wetter: Kaisersbach-Cronhütte (489m)

6-stündlich | Neueste Meldungen
Ortszeit Temperatur Wetter
Mi, 05.08. 8:00 10.7° C wolkenlos
Mi, 05.08. 2:00 9.0° C Nebel
Di, 04.08. 20:00 17.9° C bedeckt
Di, 04.08. 14:00 17.1° C bedeckt
Di, 04.08. 8:00 13.0° C bedeckt
Di, 04.08. 2:00 13.3° C leichter Regen
Mo, 03.08. 20:00 14.7° C leichter Regen
Mo, 03.08. 14:00 15.8° C Sprühregen
Ortszeit Temperatur Wetter
Mi, 05.08. 10:00 18.6° C fast wolkenlos
Mi, 05.08. 9:40 18.1° C fast wolkenlos
Mi, 05.08. 9:30 17.8° C fast wolkenlos
Mi, 05.08. 9:20 17.8° C fast wolkenlos
Mi, 05.08. 9:10 16.6° C fast wolkenlos
Mi, 05.08. 9:00 14.8° C fast wolkenlos
Mi, 05.08. 8:50 14.8° C fast wolkenlos
Mi, 05.08. 8:30 12.7° C wolkenlos
Mi, 05.08. 8:00 10.7° C wolkenlos
Mi, 05.08. 7:30 8.6° C wolkenlos
Mi, 05.08. 7:00 7.8° C wolkenlos
Mi, 05.08. 6:30 6.9° C wolkenlos
Ortszeit Relative Feuchte Sichtweite
Mi, 05.08. 8:00 86% 28 km
Mi, 05.08. 2:00 99% 0.4 km
Di, 04.08. 20:00 66% 55 km
Di, 04.08. 14:00 65% 65 km
Di, 04.08. 8:00 96% 8 km
Di, 04.08. 2:00 97% 11 km
Mo, 03.08. 20:00 94% 17 km
Mo, 03.08. 14:00 94% 19 km
Ortszeit Relative Feuchte Sichtweite
Mi, 05.08. 10:00 59% >70 km
Mi, 05.08. 9:40 61% -
Mi, 05.08. 9:30 61% 50 km
Mi, 05.08. 9:20 61% -
Mi, 05.08. 9:10 75% -
Mi, 05.08. 9:00 81% 65 km
Mi, 05.08. 8:50 81% -
Mi, 05.08. 8:30 83% 40 km
Mi, 05.08. 8:00 86% 28 km
Mi, 05.08. 7:30 91% 15 km
Mi, 05.08. 7:00 97% 21 km
Mi, 05.08. 6:30 98% 18 km
Ortszeit Niederschlagsmenge Niederschlagsart
Mi, 05.08. 8:00 0.0 l/m2 in 12 Std. -
Mi, 05.08. 2:00 0.0 l/m2 in 6 Std. -
Di, 04.08. 20:00 0.1 l/m2 in 12 Std. Regen
Di, 04.08. 14:00 0.0 l/m2 in 6 Std. -
Di, 04.08. 8:00 7 l/m2 in 12 Std. Regen
Di, 04.08. 2:00 6 l/m2 in 6 Std. Regen
Mo, 03.08. 20:00 7 l/m2 in 12 Std. Regen
Mo, 03.08. 14:00 3 l/m2 in 6 Std. Regen
Ortszeit Niederschlagsmenge Niederschlagsart
Mi, 05.08. 10:00 0.0 l/m2 in 1 Std. -
Mi, 05.08. 9:40 keine Meldung -
Mi, 05.08. 9:30 0.0 l/m2 in 1 Std. -
Mi, 05.08. 9:20 keine Meldung -
Mi, 05.08. 9:10 keine Meldung -
Mi, 05.08. 9:00 0.0 l/m2 in 1 Std. -
Mi, 05.08. 8:50 keine Meldung -
Mi, 05.08. 8:30 0.0 l/m2 in 1 Std. -
Mi, 05.08. 8:00 0.0 l/m2 in 1 Std. -
Mi, 05.08. 7:30 0.0 l/m2 in 1 Std. -
Mi, 05.08. 7:00 0.0 l/m2 in 1 Std. -
Mi, 05.08. 6:30 0.0 l/m2 in 1 Std. -
Ortszeit Stärke Spitze Richtung
km/h Bft. km/h Grad Sektor
Mi, 05.08. 8:00 0 0 7 - -
Mi, 05.08. 2:00 0 0 7 - -
Di, 04.08. 20:00 4 1 18 200° S
Di, 04.08. 14:00 4 1 22 50° NO
Di, 04.08. 8:00 4 1 22 310° NW
Di, 04.08. 2:00 6 1 13 310° NW
Mo, 03.08. 20:00 6 1 28 30° NO
Mo, 03.08. 14:00 13 3 26 320° NW
Ortszeit Stärke Spitze Richtung
km/h Bft. km/h Grad Sektor
Mi, 05.08. 10:00 4 1 11 70° O
Mi, 05.08. 9:40 6 1 - 70° O
Mi, 05.08. 9:30 4 1 7 40° NO
Mi, 05.08. 9:20 4 1 - 40° NO
Mi, 05.08. 9:10 4 1 - 20° N
Mi, 05.08. 9:00 2 1 4 110° O
Mi, 05.08. 8:50 2 1 - 110° O
Mi, 05.08. 8:30 0 0 4 - -
Mi, 05.08. 8:00 0 0 4 - -
Mi, 05.08. 7:30 0 0 4 - -
Mi, 05.08. 7:00 4 1 7 160° S
Mi, 05.08. 6:30 4 1 7 160° S
Ortszeit Untergrenze Bedeckung Gattung
total tief tief mittel hoch
Mi, 05.08. 8:00 - 0/8 0/8 - - -
Mi, 05.08. 2:00 10500 m 1/8 0/8 - - -
Di, 04.08. 20:00 3000 m 8/8 8/8 - - -
Di, 04.08. 14:00 870 m 8/8 8/8 - - -
Di, 04.08. 8:00 90 m 8/8 8/8 - - -
Di, 04.08. 2:00 90 m 7/8 7/8 - - -
Mo, 03.08. 20:00 2400 m 7/8 8/8 - - -
Mo, 03.08. 14:00 150 m 7/8 7/8 - - -
Ortszeit Bedeckungsgrad in Achtel und Wolkenuntergrenze
Mi, 05.08. 10:00 1(10500m)
Mi, 05.08. 9:40 2(10500m)
Mi, 05.08. 9:30 1(10500m)
Mi, 05.08. 9:20 1(10500m)
Mi, 05.08. 9:10 2(10500m)
Mi, 05.08. 9:00 2(10500m)
Mi, 05.08. 8:50 2(10500m)
Mi, 05.08. 8:30 keine Wolken
Mi, 05.08. 8:00 keine Wolken
Mi, 05.08. 7:30 keine Wolken
Mi, 05.08. 7:00 keine Wolken
Mi, 05.08. 6:30 keine Wolken
Ortszeit Luftdruck NN (hPa) Tendenz (hPa in 3 Std.)
Mi, 05.08. 8:00 1021 + 0,8
Mi, 05.08. 2:00 1020 0,0
Di, 04.08. 20:00 1017 + 0,7
Di, 04.08. 14:00 1016 + 1,2
Di, 04.08. 8:00 1014 + 1,1
Di, 04.08. 2:00 1012 + 0,1
Mo, 03.08. 20:00 1011 - 0,2
Mo, 03.08. 14:00 1011 - 0,6
Ortszeit Luftdruck NN (hPa) Tendenz (hPa in 3 Std.)
Mi, 05.08. 10:00 1019 - 0,2
Mi, 05.08. 9:40 1019 keine Meldung
Mi, 05.08. 9:30 1019 + 0,1
Mi, 05.08. 9:20 1019 keine Meldung
Mi, 05.08. 9:10 1019 keine Meldung
Mi, 05.08. 9:00 1020 + 0,5
Mi, 05.08. 8:50 1020 keine Meldung
Mi, 05.08. 8:30 1020 + 0,5
Mi, 05.08. 8:00 1021 + 0,8
Mi, 05.08. 7:30 1021 + 1,0
Mi, 05.08. 7:00 1021 + 0,7
Mi, 05.08. 6:30 1021 + 0,4
Ortszeit Schneehöhe (cm)
Mi, 05.08. 8:00 -
Mi, 05.08. 2:00 -
Di, 04.08. 20:00 -
Di, 04.08. 14:00 -
Di, 04.08. 8:00 -
Di, 04.08. 2:00 -
Mo, 03.08. 20:00 -
Mo, 03.08. 14:00 -
Ortszeit Schneehöhe (cm)
Mi, 05.08. 10:00 -
Mi, 05.08. 9:40 -
Mi, 05.08. 9:30 -
Mi, 05.08. 9:20 -
Mi, 05.08. 9:10 -
Mi, 05.08. 9:00 -
Mi, 05.08. 8:50 -
Mi, 05.08. 8:30 -
Mi, 05.08. 8:00 -
Mi, 05.08. 7:30 -
Mi, 05.08. 7:00 -
Mi, 05.08. 6:30 -
Link zu dieser Seite / Seite empfehlen

Das Wetter in ...